| time (UTC) | temp F | wind direction | speed knots | gust knots | rain 1hr in | rain 24hr in | rain mn in | humidity % | barometer mb |
| 20260831042017 | 71 | 199 | 1.7 | 11.3 | 0.00 | 0.82 | 0.00 | 88 | 1017.5 |
| 20260831041537 | 71 | 129 | 0.9 | 6.1 | 0.00 | 0.82 | 0.00 | 88 | 1017.7 |
| 20260831041020 | 70 | 216 | 1.7 | 6.1 | 0.00 | 0.82 | 0.00 | 89 | 1017.7 |
| 20260831040519 | 70 | 0 | 1.7 | 7.0 | 0.00 | 0.82 | 0.00 | 89 | 1017.8 |
| 20260831040036 | 70 | 169 | 1.7 | 7.0 | 0.00 | 0.82 | 0.00 | 89 | 1017.8 |
| 20260831035523 | 70 | 174 | 0.0 | 4.3 | 0.00 | 0.82 | 0.82 | 90 | 1017.9 |
| 20260831035018 | 70 | 167 | 1.7 | 4.3 | 0.00 | 0.82 | 0.82 | 90 | 1017.9 |
| 20260831034545 | 69 | 200 | 0.9 | 3.5 | 0.00 | 0.82 | 0.82 | 90 | 1017.9 |
| 20260831034016 | 69 | 0 | 0.0 | 3.5 | 0.00 | 0.82 | 0.82 | 90 | 1017.9 |
| 20260831033517 | 69 | 214 | 1.7 | 3.5 | 0.00 | 0.82 | 0.82 | 90 | 1017.9 |
| 20260831033035 | 69 | 0 | 0.9 | 5.2 | 0.00 | 0.82 | 0.82 | 90 | 1017.9 |
| 20260831032516 | 69 | 0 | 1.7 | 5.2 | 0.00 | 0.82 | 0.82 | 90 | 1017.9 |
| 20260831032019 | 69 | 195 | 1.7 | 4.3 | 0.00 | 0.82 | 0.82 | 90 | 1017.9 |
| 20260831031536 | 69 | 167 | 0.0 | 2.6 | 0.00 | 0.82 | 0.82 | 90 | 1017.9 |
| 20260831031017 | 69 | 155 | 0.9 | 2.6 | 0.00 | 0.82 | 0.82 | 90 | 1017.9 |
| 20260831030517 | 69 | 0 | 0.9 | 4.3 | 0.00 | 0.82 | 0.82 | 90 | 1017.8 |
| 20260831030036 | 69 | 0 | 0.9 | 4.3 | 0.00 | 0.82 | 0.82 | 89 | 1017.8 |
| 20260831025517 | 69 | 171 | 0.9 | 4.3 | 0.00 | 0.82 | 0.82 | 89 | 1017.7 |
| 20260831025017 | 69 | 0 | 0.9 | 3.5 | 0.00 | 0.82 | 0.82 | 89 | 1017.7 |
| 20260831024536 | 69 | 171 | 1.7 | 4.3 | 0.00 | 0.82 | 0.82 | 89 | 1017.7 |
| 20260831024020 | 69 | 166 | 1.7 | 4.3 | 0.00 | 0.82 | 0.82 | 89 | 1017.7 |
| 20260831023518 | 69 | 203 | 1.7 | 4.3 | 0.00 | 0.82 | 0.82 | 89 | 1017.7 |
| 20260831023037 | 69 | 199 | 1.7 | 4.3 | 0.00 | 0.82 | 0.82 | 89 | 1017.6 |
| 20260831022517 | 69 | 191 | 2.6 | 4.3 | 0.00 | 0.82 | 0.82 | 89 | 1017.6 |
| 20260831022019 | 69 | 159 | 2.6 | 4.3 | 0.00 | 0.82 | 0.82 | 89 | 1017.6 |
| 20260831021539 | 69 | 202 | 0.0 | 4.3 | 0.00 | 0.82 | 0.82 | 88 | 1017.6 |
| 20260831021018 | 69 | 161 | 1.7 | 7.0 | 0.00 | 0.82 | 0.82 | 88 | 1017.6 |
| 20260831020518 | 69 | 203 | 1.7 | 7.0 | 0.00 | 0.82 | 0.82 | 88 | 1017.6 |
| 20260831020033 | 69 | 221 | 2.6 | 7.0 | 0.00 | 0.82 | 0.82 | 88 | 1017.4 |
| 20260831015517 | 69 | 157 | 3.5 | 6.1 | 0.00 | 0.82 | 0.82 | 88 | 1017.5 |
| 20260831015017 | 69 | 152 | 2.6 | 6.1 | 0.00 | 0.82 | 0.82 | 88 | 1017.5 |
| 20260831014534 | 69 | 176 | 1.7 | 5.2 | 0.00 | 0.82 | 0.82 | 89 | 1017.5 |
| 20260831014017 | 69 | 146 | 1.7 | 5.2 | 0.00 | 0.82 | 0.82 | 89 | 1017.4 |
| 20260831013517 | 69 | 168 | 2.6 | 7.0 | 0.00 | 0.82 | 0.82 | 89 | 1017.4 |
| 20260831013046 | 69 | 201 | 2.6 | 7.0 | 0.00 | 0.82 | 0.82 | 89 | 1017.5 |
| 20260831012524 | 69 | 181 | 2.6 | 6.1 | 0.00 | 0.82 | 0.82 | 89 | 1017.4 |
| 20260831012020 | 69 | 191 | 2.6 | 7.8 | 0.00 | 0.82 | 0.82 | 89 | 1017.5 |
| 20260831011544 | 69 | 162 | 2.6 | 7.8 | 0.00 | 0.82 | 0.82 | 89 | 1017.5 |
| 20260831011018 | 69 | 165 | 3.5 | 7.8 | 0.00 | 0.82 | 0.82 | 89 | 1017.4 |
| 20260831010518 | 70 | 127 | 2.6 | 7.0 | 0.00 | 0.82 | 0.82 | 90 | 1017.3 |
| 20260831010042 | 70 | 176 | 1.7 | 4.3 | 0.00 | 0.82 | 0.82 | 90 | 1017.2 |
| 20260831005516 | 70 | 146 | 1.7 | 6.1 | 0.00 | 0.82 | 0.82 | 90 | 1017.1 |
| 20260831005018 | 70 | 144 | 2.6 | 6.1 | 0.00 | 0.82 | 0.82 | 90 | 1017.1 |
| 20260831004536 | 70 | 207 | 1.7 | 5.2 | 0.00 | 0.82 | 0.82 | 90 | 1017.1 |
| 20260831004023 | 70 | 158 | 2.6 | 7.0 | 0.00 | 0.82 | 0.82 | 90 | 1017.1 |
| 20260831003520 | 70 | 162 | 2.6 | 7.0 | 0.00 | 0.82 | 0.82 | 90 | 1017.1 |
| 20260831003038 | 70 | 105 | 1.7 | 7.0 | 0.00 | 0.82 | 0.82 | 91 | 1017.2 |
| 20260831002519 | 70 | 167 | 1.7 | 7.0 | 0.00 | 0.82 | 0.82 | 91 | 1017.3 |
| 20260831002021 | 70 | 152 | 0.9 | 5.2 | 0.00 | 0.82 | 0.82 | 91 | 1017.3 |
| 20260831001533 | 70 | 202 | 0.9 | 5.2 | 0.00 | 0.82 | 0.82 | 91 | 1017.3 |
| 20260831001019 | 70 | 169 | 2.6 | 5.2 | 0.00 | 0.82 | 0.82 | 91 | 1017.2 |
| 20260831000517 | 70 | 196 | 1.7 | 7.0 | 0.00 | 0.82 | 0.82 | 91 | 1017.2 |
| 20260831000034 | 70 | 204 | 1.7 | 8.7 | 0.00 | 0.82 | 0.82 | 91 | 1017.1 |
| 20260830235517 | 70 | 159 | 2.6 | 8.7 | 0.00 | 0.82 | 0.82 | 91 | 1017.1 |
| 20260830235017 | 70 | 108 | 3.5 | 7.8 | 0.00 | 0.82 | 0.82 | 91 | 1017.0 |
| 20260830234541 | 70 | 197 | 2.6 | 7.8 | 0.00 | 0.82 | 0.82 | 90 | 1017.1 |
| 20260830234018 | 70 | 197 | 3.5 | 8.7 | 0.00 | 0.82 | 0.82 | 90 | 1017.2 |
| 20260830233520 | 70 | 150 | 3.5 | 8.7 | 0.00 | 0.82 | 0.82 | 90 | 1017.3 |
| 20260830233035 | 70 | 141 | 3.5 | 7.0 | 0.00 | 0.82 | 0.82 | 90 | 1017.3 |
| 20260830232518 | 70 | 122 | 3.5 | 7.8 | 0.00 | 0.82 | 0.82 | 90 | 1017.3 |
| 20260830232018 | 70 | 141 | 2.6 | 7.8 | 0.00 | 0.82 | 0.82 | 90 | 1017.2 |
| 20260830231534 | 70 | 143 | 3.5 | 7.8 | 0.00 | 0.82 | 0.82 | 90 | 1017.3 |
| 20260830231016 | 70 | 176 | 2.6 | 7.8 | 0.00 | 0.82 | 0.82 | 90 | 1017.3 |
| 20260830230517 | 70 | 166 | 1.7 | 7.0 | 0.00 | 0.82 | 0.82 | 90 | 1017.4 |
| 20260830230033 | 70 | 173 | 2.6 | 6.1 | 0.00 | 0.82 | 0.82 | 90 | 1017.6 |
| 20260830225519 | 70 | 176 | 1.7 | 5.2 | 0.00 | 0.82 | 0.82 | 90 | 1017.6 |
| 20260830225022 | 70 | 135 | 1.7 | 5.2 | 0.00 | 0.82 | 0.82 | 90 | 1017.8 |
| 20260830224535 | 70 | 139 | 0.9 | 5.2 | 0.00 | 0.82 | 0.82 | 91 | 1017.9 |
| 20260830224019 | 70 | 156 | 0.9 | 5.2 | 0.00 | 0.82 | 0.82 | 91 | 1017.9 |
| 20260830223519 | 70 | 133 | 0.9 | 3.5 | 0.00 | 0.82 | 0.82 | 91 | 1017.9 |
| 20260830223043 | 70 | 116 | 0.9 | 3.5 | 0.00 | 0.82 | 0.82 | 92 | 1017.9 |
| 20260830222518 | 70 | 0 | 0.0 | 3.5 | 0.00 | 0.82 | 0.82 | 92 | 1017.9 |
| 20260830222017 | 70 | 139 | 0.9 | 3.5 | 0.00 | 0.82 | 0.82 | 93 | 1018.0 |
| 20260830221544 | 70 | 117 | 0.9 | 3.5 | 0.00 | 0.82 | 0.82 | 94 | 1018.0 |
| 20260830221016 | 69 | 0 | 0.0 | 3.5 | 0.00 | 0.82 | 0.82 | 95 | 1018.1 |
| 20260830220516 | 69 | 0 | 1.7 | 4.3 | 0.00 | 0.82 | 0.82 | 95 | 1018.0 |
| 20260830220035 | 69 | 165 | 0.9 | 5.2 | 0.00 | 0.82 | 0.82 | 96 | 1017.9 |
| 20260830215522 | 69 | 221 | 1.7 | 6.1 | 0.00 | 0.82 | 0.82 | 97 | 1017.9 |
| 20260830215021 | 69 | 155 | 2.6 | 6.1 | 0.00 | 0.82 | 0.82 | 97 | 1017.9 |
| 20260830214538 | 69 | 174 | 3.5 | 6.1 | 0.00 | 0.82 | 0.82 | 97 | 1017.8 |
| 20260830214021 | 69 | 199 | 2.6 | 6.1 | 0.00 | 0.82 | 0.82 | 97 | 1017.8 |
| 20260830213516 | 69 | 162 | 0.9 | 3.5 | 0.00 | 0.82 | 0.82 | 97 | 1018.0 |
| 20260830213036 | 69 | 206 | 0.9 | 4.3 | 0.00 | 0.82 | 0.82 | 97 | 1017.9 |
| 20260830212516 | 68 | 167 | 1.7 | 4.3 | 0.00 | 0.82 | 0.82 | 97 | 1017.8 |
| 20260830212016 | 68 | 183 | 1.7 | 6.1 | 0.00 | 0.82 | 0.82 | 97 | 1017.7 |
| 20260830211536 | 68 | 161 | 2.6 | 6.1 | 0.00 | 0.82 | 0.82 | 97 | 1017.7 |
| 20260830211018 | 68 | 161 | 2.6 | 6.1 | 0.00 | 0.82 | 0.82 | 97 | 1017.6 |
| 20260830210516 | 68 | 184 | 1.7 | 4.3 | 0.00 | 0.82 | 0.82 | 97 | 1017.6 |
| 20260830210039 | 68 | 0 | 0.9 | 4.3 | 0.00 | 0.82 | 0.82 | 97 | 1017.5 |
| 20260830205518 | 68 | 168 | 0.9 | 6.1 | 0.00 | 0.82 | 0.82 | 97 | 1017.5 |
| 20260830205018 | 68 | 165 | 1.7 | 6.1 | 0.00 | 0.82 | 0.82 | 97 | 1017.4 |
| 20260830204534 | 68 | 210 | 1.7 | 6.1 | 0.00 | 0.82 | 0.82 | 97 | 1017.4 |
| 20260830204018 | 68 | 150 | 1.7 | 5.2 | 0.00 | 0.82 | 0.82 | 97 | 1017.4 |
| 20260830203518 | 68 | 193 | 0.9 | 4.3 | 0.00 | 0.82 | 0.82 | 97 | 1017.3 |
| 20260830203036 | 68 | 0 | 1.7 | 6.1 | 0.00 | 0.82 | 0.82 | 97 | 1017.4 |
| 20260830202516 | 68 | 134 | 1.7 | 6.1 | 0.00 | 0.82 | 0.82 | 97 | 1017.3 |
| 20260830202016 | 68 | 165 | 1.7 | 5.2 | 0.00 | 0.82 | 0.82 | 97 | 1017.3 |
| 20260830201533 | 68 | 101 | 2.6 | 5.2 | 0.00 | 0.82 | 0.82 | 97 | 1017.4 |
| 20260830201017 | 68 | 195 | 1.7 | 5.2 | 0.00 | 0.82 | 0.82 | 97 | 1017.7 |
| 20260830200519 | 68 | 167 | 1.7 | 8.7 | 0.00 | 0.82 | 0.82 | 97 | 1017.7 |
| 20260830200044 | 68 | 158 | 1.7 | 8.7 | 0.00 | 0.82 | 0.82 | 97 | 1017.6 |
| 20260830195517 | 68 | 126 | 2.6 | 8.7 | 0.00 | 0.82 | 0.82 | 97 | 1017.6 |
| 20260830195017 | 68 | 0 | 2.6 | 5.2 | 0.00 | 0.82 | 0.82 | 97 | 1017.7 |
| 20260830194540 | 69 | 179 | 0.9 | 3.5 | 0.00 | 0.82 | 0.82 | 97 | 1017.7 |
| 20260830194018 | 69 | 194 | 0.9 | 5.2 | 0.00 | 0.82 | 0.82 | 97 | 1017.8 |
| 20260830193518 | 69 | 106 | 0.9 | 6.1 | 0.00 | 0.82 | 0.82 | 97 | 1017.8 |
| 20260830193038 | 68 | 0 | 2.6 | 6.1 | 0.00 | 0.82 | 0.82 | 97 | 1017.6 |
| 20260830192520 | 68 | 155 | 2.6 | 6.1 | 0.00 | 0.82 | 0.82 | 97 | 1017.6 |
| 20260830192018 | 68 | 138 | 0.9 | 7.0 | 0.00 | 0.82 | 0.82 | 97 | 1017.8 |
| 20260830191534 | 68 | 0 | 0.9 | 7.0 | 0.00 | 0.82 | 0.82 | 97 | 1017.7 |
| 20260830191018 | 68 | 117 | 1.7 | 5.2 | 0.00 | 0.82 | 0.82 | 97 | 1017.6 |
| 20260830190519 | 68 | 103 | 2.6 | 4.3 | 0.00 | 0.82 | 0.82 | 97 | 1017.8 |
| 20260830190044 | 68 | 101 | 0.9 | 3.5 | 0.00 | 0.82 | 0.82 | 97 | 1017.9 |
| 20260830185519 | 68 | 132 | 0.9 | 3.5 | 0.00 | 0.82 | 0.82 | 97 | 1017.8 |
| 20260830185018 | 68 | 146 | 1.7 | 3.5 | 0.00 | 0.82 | 0.82 | 97 | 1017.8 |
| 20260830184539 | 68 | 129 | 1.7 | 3.5 | 0.00 | 0.82 | 0.82 | 97 | 1018.0 |
| 20260830184019 | 68 | 0 | 0.0 | 3.5 | 0.00 | 0.82 | 0.82 | 97 | 1018.2 |
| 20260830183518 | 67 | 158 | 1.7 | 3.5 | 0.00 | 0.82 | 0.82 | 97 | 1018.3 |
| 20260830183043 | 67 | 157 | 0.9 | 4.3 | 0.00 | 0.82 | 0.82 | 97 | 1018.5 |
| 20260830182518 | 67 | 0 | 0.0 | 4.3 | 0.00 | 0.82 | 0.82 | 97 | 1018.4 |
| 20260830182017 | 67 | 137 | 0.9 | 4.3 | 0.00 | 0.82 | 0.82 | 97 | 1018.4 |
| 20260830181534 | 67 | 134 | 0.9 | 3.5 | 0.00 | 0.82 | 0.82 | 97 | 1018.2 |
| 20260830181018 | 67 | 0 | 0.0 | 3.5 | 0.00 | 0.82 | 0.82 | 97 | 1018.0 |
| 20260830180523 | 67 | 136 | 0.9 | 3.5 | 0.00 | 0.82 | 0.82 | 97 | 1018.1 |
| 20260830180040 | 67 | 146 | 0.9 | 4.3 | 0.00 | 0.82 | 0.82 | 97 | 1018.0 |
| 20260830175517 | 67 | 110 | 0.0 | 4.3 | 0.00 | 0.82 | 0.82 | 97 | 1018.1 |
| 20260830175021 | 67 | 154 | 1.7 | 10.4 | 0.00 | 0.82 | 0.82 | 97 | 1018.0 |
| 20260830174614 | 66 | 140 | 3.5 | 10.4 | 0.01 | 0.82 | 0.82 | 97 | 1017.9 |
| 20260830174017 | 66 | 155 | 3.5 | 10.4 | 0.01 | 0.82 | 0.82 | 97 | 1018.0 |
| 20260830173517 | 66 | 167 | 2.6 | 7.8 | 0.01 | 0.82 | 0.82 | 97 | 1018.0 |
| 20260830173038 | 66 | 0 | 1.7 | 8.7 | 0.01 | 0.82 | 0.82 | 97 | 1018.1 |
| 20260830172520 | 66 | 193 | 4.3 | 8.7 | 0.01 | 0.82 | 0.82 | 97 | 1018.1 |
| 20260830172019 | 66 | 168 | 4.3 | 8.7 | 0.02 | 0.82 | 0.82 | 97 | 1018.2 |
| 20260830171538 | 66 | 179 | 2.6 | 7.0 | 0.02 | 0.82 | 0.82 | 97 | 1018.3 |
| 20260830171021 | 66 | 192 | 2.6 | 6.1 | 0.04 | 0.82 | 0.82 | 97 | 1018.2 |
| 20260830170516 | 66 | 155 | 2.6 | 6.1 | 0.06 | 0.82 | 0.82 | 97 | 1018.3 |
| 20260830170039 | 65 | 134 | 1.7 | 5.2 | 0.10 | 0.82 | 0.82 | 97 | 1018.6 |
| 20260830165518 | 65 | 191 | 1.7 | 5.2 | 0.14 | 0.82 | 0.82 | 97 | 1018.9 |
| 20260830165019 | 65 | 153 | 1.7 | 7.8 | 0.15 | 0.81 | 0.81 | 97 | 1019.1 |
| 20260830164535 | 65 | 158 | 1.7 | 7.8 | 0.15 | 0.81 | 0.81 | 97 | 1019.1 |
| 20260830164019 | 65 | 171 | 4.3 | 7.8 | 0.16 | 0.81 | 0.81 | 97 | 1018.9 |
| 20260830163516 | 65 | 171 | 1.7 | 7.0 | 0.17 | 0.81 | 0.81 | 97 | 1019.2 |
| 20260830163038 | 65 | 178 | 1.7 | 7.0 | 0.18 | 0.81 | 0.81 | 97 | 1019.1 |
| 20260830162517 | 65 | 182 | 2.6 | 7.8 | 0.19 | 0.81 | 0.81 | 97 | 1019.1 |
| 20260830162015 | 65 | 174 | 3.5 | 7.8 | 0.19 | 0.80 | 0.80 | 97 | 1019.1 |
| 20260830161537 | 65 | 154 | 2.6 | 11.3 | 0.19 | 0.80 | 0.80 | 97 | 1019.3 |
| 20260830161016 | 65 | 208 | 4.3 | 11.3 | 0.17 | 0.78 | 0.78 | 97 | 1019.2 |
| 20260830160520 | 65 | 202 | 3.5 | 7.8 | 0.15 | 0.75 | 0.75 | 97 | 1019.4 |
| 20260830160042 | 65 | 155 | 1.7 | 7.0 | 0.10 | 0.70 | 0.70 | 97 | 1019.8 |
| 20260830155521 | 65 | 191 | 1.7 | 6.1 | 0.08 | 0.67 | 0.67 | 97 | 1020.0 |
| 20260830155021 | 65 | 179 | 1.7 | 5.2 | 0.08 | 0.66 | 0.66 | 97 | 1019.9 |
| 20260830154536 | 65 | 161 | 1.7 | 6.1 | 0.08 | 0.66 | 0.66 | 97 | 1019.8 |
| 20260830154017 | 65 | 212 | 2.6 | 6.1 | 0.07 | 0.65 | 0.65 | 97 | 1019.5 |
| 20260830153517 | 65 | 177 | 1.7 | 7.8 | 0.07 | 0.64 | 0.64 | 97 | 1019.8 |
| 20260830153036 | 65 | 124 | 2.6 | 7.8 | 0.07 | 0.63 | 0.63 | 97 | 1019.7 |
| 20260830152520 | 65 | 228 | 2.6 | 4.3 | 0.07 | 0.62 | 0.62 | 97 | 1019.9 |
| 20260830152019 | 65 | 219 | 1.7 | 5.2 | 0.07 | 0.61 | 0.61 | 97 | 1020.1 |
| 20260830151536 | 65 | 159 | 0.9 | 5.2 | 0.08 | 0.61 | 0.61 | 97 | 1020.2 |
| 20260830151018 | 65 | 173 | 0.9 | 3.5 | 0.09 | 0.61 | 0.61 | 97 | 1020.2 |
| 20260830150518 | 65 | 0 | 0.9 | 2.6 | 0.09 | 0.60 | 0.60 | 97 | 1020.3 |
| 20260830150035 | 65 | 203 | 0.0 | 2.6 | 0.10 | 0.60 | 0.60 | 97 | 1020.3 |
| 20260830145517 | 65 | 174 | 0.0 | 4.3 | 0.11 | 0.58 | 0.58 | 97 | 1020.3 |
| 20260830145018 | 65 | 0 | 0.9 | 4.3 | 0.12 | 0.58 | 0.58 | 97 | 1020.4 |
| 20260830144537 | 65 | 240 | 0.9 | 4.3 | 0.14 | 0.58 | 0.58 | 97 | 1020.5 |
| 20260830144018 | 65 | 257 | 0.9 | 4.3 | 0.16 | 0.57 | 0.57 | 97 | 1020.4 |
| 20260830143520 | 65 | 230 | 0.9 | 2.6 | 0.16 | 0.56 | 0.56 | 97 | 1020.2 |
| 20260830143039 | 65 | 0 | 0.0 | 4.3 | 0.17 | 0.56 | 0.56 | 97 | 1020.0 |
| 20260830142522 | 65 | 236 | 0.0 | 4.3 | 0.18 | 0.55 | 0.55 | 97 | 1020.3 |
| 20260830142020 | 65 | 243 | 0.9 | 4.3 | 0.19 | 0.54 | 0.54 | 97 | 1020.2 |
| 20260830141537 | 65 | 0 | 0.0 | 4.3 | 0.20 | 0.52 | 0.52 | 97 | 1020.2 |
| 20260830141019 | 65 | 221 | 1.7 | 4.3 | 0.21 | 0.52 | 0.52 | 97 | 1020.2 |
| 20260830140518 | 65 | 0 | 0.0 | 5.2 | 0.21 | 0.50 | 0.50 | 97 | 1020.1 |
| 20260830140038 | 65 | 233 | 0.0 | 5.2 | 0.21 | 0.49 | 0.49 | 97 | 1020.0 |
| 20260830135517 | 65 | 0 | 0.9 | 3.5 | 0.21 | 0.47 | 0.47 | 97 | 1020.0 |
| 20260830135017 | 65 | 195 | 0.0 | 3.5 | 0.22 | 0.46 | 0.46 | 97 | 1020.0 |
| 20260830134542 | 65 | 0 | 0.9 | 4.3 | 0.20 | 0.43 | 0.43 | 97 | 1020.1 |
| 20260830134019 | 66 | 241 | 1.7 | 4.3 | 0.19 | 0.41 | 0.41 | 97 | 1020.2 |
| 20260830133517 | 66 | 195 | 0.9 | 3.5 | 0.19 | 0.40 | 0.40 | 97 | 1020.0 |
| 20260830133036 | 66 | 0 | 0.0 | 0.9 | 0.18 | 0.38 | 0.38 | 97 | 1020.2 |
| 20260830132520 | 66 | 0 | 0.0 | 1.7 | 0.18 | 0.37 | 0.37 | 97 | 1020.3 |
| 20260830132017 | 66 | 0 | 0.0 | 2.6 | 0.16 | 0.35 | 0.35 | 97 | 1020.2 |
| 20260830131535 | 66 | 186 | 0.0 | 2.6 | 0.14 | 0.32 | 0.32 | 97 | 1020.1 |
| 20260830131016 | 66 | 238 | 0.0 | 2.6 | 0.14 | 0.31 | 0.31 | 97 | 1020.1 |
| 20260830130518 | 66 | 0 | 0.0 | 2.6 | 0.14 | 0.29 | 0.29 | 97 | 1019.9 |
| 20260830130042 | 66 | 164 | 0.9 | 3.5 | 0.13 | 0.27 | 0.27 | 97 | 1019.6 |
| 20260830125517 | 66 | 0 | 0.9 | 3.5 | 0.13 | 0.26 | 0.26 | 97 | 1019.7 |
| 20260830125016 | 66 | 187 | 0.9 | 3.5 | 0.11 | 0.24 | 0.24 | 97 | 1019.6 |
| 20260830124534 | 66 | 198 | 0.9 | 3.5 | 0.11 | 0.23 | 0.23 | 97 | 1019.8 |
| 20260830124016 | 66 | 0 | 0.0 | 5.2 | 0.11 | 0.22 | 0.22 | 97 | 1019.9 |
| 20260830123517 | 66 | 217 | 0.9 | 5.2 | 0.10 | 0.21 | 0.21 | 97 | 1020.0 |
| 20260830123034 | 66 | 200 | 1.7 | 4.3 | 0.09 | 0.20 | 0.20 | 97 | 1020.1 |
| 20260830122519 | 66 | 0 | 0.0 | 2.6 | 0.08 | 0.19 | 0.19 | 97 | 1020.2 |
| 20260830122017 | 67 | 155 | 0.0 | 7.0 | 0.07 | 0.18 | 0.18 | 97 | 1020.3 |
| 20260830121539 | 67 | 238 | 1.7 | 7.0 | 0.07 | 0.18 | 0.18 | 97 | 1020.4 |
| 20260830121016 | 67 | 172 | 4.3 | 6.1 | 0.05 | 0.16 | 0.16 | 97 | 1020.2 |
| 20260830120517 | 67 | 0 | 0.0 | 4.3 | 0.04 | 0.15 | 0.15 | 97 | 1020.3 |
| 20260830120037 | 67 | 153 | 0.9 | 4.3 | 0.03 | 0.14 | 0.14 | 97 | 1020.0 |
| 20260830115518 | 67 | 199 | 1.7 | 3.5 | 0.02 | 0.13 | 0.13 | 97 | 1019.7 |
| 20260830115024 | 67 | 0 | 0.0 | 1.7 | 0.02 | 0.13 | 0.13 | 97 | 1019.8 |
| 20260830114539 | 67 | 0 | 0.0 | 0.0 | 0.00 | 0.11 | 0.11 | 97 | 1020.2 |
| 20260830114023 | 67 | 0 | 0.0 | 0.0 | 0.00 | 0.11 | 0.11 | 97 | 1020.2 |
| 20260830113519 | 67 | 0 | 0.0 | 2.6 | 0.00 | 0.11 | 0.11 | 97 | 1019.9 |
| 20260830113037 | 67 | 0 | 0.0 | 3.5 | 0.00 | 0.11 | 0.11 | 97 | 1019.4 |
| 20260830112519 | 67 | 94 | 0.9 | 3.5 | 0.00 | 0.11 | 0.11 | 97 | 1019.1 |
| 20260830112018 | 66 | 77 | 0.9 | 2.6 | 0.00 | 0.11 | 0.11 | 97 | 1018.8 |
| 20260830111535 | 66 | 0 | 0.0 | 1.7 | 0.00 | 0.11 | 0.11 | 97 | 1018.8 |
| 20260830111018 | 66 | 0 | 0.0 | 1.7 | 0.00 | 0.11 | 0.11 | 97 | 1018.8 |
| 20260830110518 | 66 | 0 | 0.0 | 0.9 | 0.00 | 0.11 | 0.11 | 97 | 1018.8 |
| 20260830110035 | 66 | 0 | 0.0 | 0.9 | 0.00 | 0.11 | 0.11 | 97 | 1018.7 |
| 20260830105516 | 66 | 0 | 0.0 | 0.9 | 0.00 | 0.11 | 0.11 | 97 | 1018.6 |
| 20260830105017 | 66 | 0 | 0.0 | 0.0 | 0.00 | 0.11 | 0.11 | 97 | 1018.8 |
| 20260830104556 | 66 | 0 | 0.0 | 0.0 | 0.00 | 0.11 | 0.11 | 97 | 1018.8 |
| 20260830104019 | 66 | 0 | 0.0 | 1.7 | 0.01 | 0.11 | 0.11 | 97 | 1018.7 |
| 20260830103521 | 66 | 0 | 0.0 | 1.7 | 0.01 | 0.11 | 0.11 | 97 | 1018.7 |
| 20260830103037 | 66 | 122 | 0.0 | 1.7 | 0.02 | 0.11 | 0.11 | 97 | 1018.7 |
| 20260830102518 | 66 | 131 | 0.0 | 1.7 | 0.02 | 0.11 | 0.11 | 97 | 1018.7 |
| 20260830102018 | 66 | 0 | 0.0 | 0.9 | 0.03 | 0.11 | 0.11 | 97 | 1018.8 |
| 20260830101534 | 66 | 0 | 0.0 | 0.9 | 0.03 | 0.11 | 0.11 | 97 | 1018.9 |
| 20260830101022 | 66 | 84 | 0.0 | 0.0 | 0.03 | 0.11 | 0.11 | 97 | 1018.9 |
| 20260830100516 | 66 | 0 | 0.0 | 0.0 | 0.03 | 0.11 | 0.11 | 97 | 1019.1 |
| 20260830100033 | 66 | 0 | 0.0 | 4.3 | 0.03 | 0.11 | 0.11 | 97 | 1018.9 |
| 20260830095518 | 66 | 0 | 0.0 | 4.3 | 0.03 | 0.11 | 0.11 | 97 | 1018.7 |
| 20260830095016 | 66 | 113 | 0.9 | 4.3 | 0.03 | 0.11 | 0.11 | 97 | 1018.6 |
| 20260830094536 | 66 | 104 | 0.9 | 2.6 | 0.03 | 0.11 | 0.11 | 97 | 1018.8 |
| 20260830094022 | 66 | 0 | 0.0 | 1.7 | 0.02 | 0.10 | 0.10 | 97 | 1018.9 |
| 20260830093518 | 67 | 0 | 0.0 | 0.9 | 0.02 | 0.09 | 0.09 | 97 | 1019.1 |
| 20260830093041 | 67 | 191 | 0.0 | 0.9 | 0.02 | 0.09 | 0.09 | 97 | 1019.3 |
| 20260830092516 | 67 | 0 | 0.0 | 2.6 | 0.03 | 0.09 | 0.09 | 97 | 1019.3 |
| 20260830092018 | 67 | 150 | 0.0 | 2.6 | 0.03 | 0.08 | 0.08 | 97 | 1019.2 |
| 20260830091536 | 67 | 0 | 0.9 | 2.6 | 0.04 | 0.08 | 0.08 | 97 | 1019.2 |
| 20260830091017 | 67 | 168 | 0.9 | 2.6 | 0.04 | 0.08 | 0.08 | 97 | 1019.1 |
| 20260830090521 | 67 | 0 | 0.0 | 0.9 | 0.04 | 0.08 | 0.08 | 97 | 1019.6 |
| 20260830090033 | 66 | 0 | 0.0 | 2.6 | 0.04 | 0.08 | 0.08 | 96 | 1019.4 |
| 20260830085518 | 66 | 116 | 0.0 | 2.6 | 0.04 | 0.08 | 0.08 | 96 | 1019.2 |
| 20260830085016 | 66 | 105 | 0.0 | 0.9 | 0.05 | 0.08 | 0.08 | 96 | 1019.3 |
| 20260830084536 | 66 | 0 | 0.0 | 0.0 | 0.05 | 0.08 | 0.08 | 96 | 1019.5 |
| 20260830084019 | 66 | 0 | 0.0 | 0.0 | 0.05 | 0.08 | 0.08 | 96 | 1019.5 |
| 20260830083518 | 66 | 0 | 0.0 | 0.0 | 0.04 | 0.07 | 0.07 | 96 | 1019.8 |
| 20260830083052 | 66 | 0 | 0.0 | 0.0 | 0.04 | 0.07 | 0.07 | 96 | 1019.7 |
| 20260830082518 | 66 | 0 | 0.0 | 0.0 | 0.03 | 0.06 | 0.06 | 96 | 1019.8 |
| 20260830082020 | 66 | 0 | 0.0 | 0.0 | 0.02 | 0.05 | 0.05 | 96 | 1020.0 |
| 20260830081534 | 66 | 0 | 0.0 | 0.0 | 0.02 | 0.04 | 0.04 | 96 | 1020.3 |
| 20260830081017 | 66 | 0 | 0.0 | 0.0 | 0.02 | 0.04 | 0.04 | 96 | 1020.2 |
| 20260830080516 | 66 | 0 | 0.0 | 0.0 | 0.03 | 0.04 | 0.04 | 96 | 1019.9 |
| 20260830080036 | 66 | 0 | 0.0 | 1.7 | 0.03 | 0.04 | 0.04 | 96 | 1020.0 |
| 20260830075517 | 66 | 0 | 0.0 | 1.7 | 0.03 | 0.04 | 0.04 | 95 | 1019.9 |
| 20260830075017 | 66 | 0 | 0.0 | 1.7 | 0.02 | 0.03 | 0.03 | 95 | 1019.7 |
| 20260830074534 | 67 | 0 | 0.0 | 0.0 | 0.02 | 0.03 | 0.03 | 95 | 1019.8 |
| 20260830074017 | 67 | 146 | 0.0 | 0.0 | 0.02 | 0.03 | 0.03 | 94 | 1019.8 |
| 20260830073519 | 67 | 0 | 0.0 | 0.0 | 0.02 | 0.03 | 0.03 | 94 | 1019.9 |
| 20260830073039 | 67 | 0 | 0.0 | 0.0 | 0.02 | 0.03 | 0.03 | 93 | 1020.0 |
| 20260830072521 | 67 | 0 | 0.0 | 0.0 | 0.02 | 0.03 | 0.03 | 92 | 1020.2 |
| 20260830072020 | 67 | 0 | 0.0 | 0.9 | 0.02 | 0.03 | 0.03 | 92 | 1020.3 |
| 20260830071540 | 67 | 0 | 0.0 | 0.9 | 0.01 | 0.02 | 0.02 | 92 | 1020.2 |
| 20260830071017 | 67 | 0 | 0.0 | 0.9 | 0.01 | 0.02 | 0.02 | 92 | 1020.1 |
| 20260830070517 | 67 | 0 | 0.0 | 0.9 | 0.00 | 0.01 | 0.01 | 92 | 1020.1 |
| 20260830070033 | 67 | 0 | 0.0 | 0.0 | 0.00 | 0.01 | 0.01 | 92 | 1020.1 |
| 20260830065519 | 67 | 0 | 0.0 | 0.9 | 0.00 | 0.01 | 0.01 | 92 | 1020.2 |
| 20260830065018 | 67 | 0 | 0.0 | 0.9 | 0.00 | 0.01 | 0.01 | 92 | 1020.1 |
| 20260830064539 | 67 | 0 | 0.0 | 0.9 | 0.00 | 0.01 | 0.01 | 91 | 1020.2 |
| 20260830064018 | 67 | 250 | 0.0 | 0.0 | 0.00 | 0.01 | 0.01 | 91 | 1020.2 |
| 20260830063521 | 67 | 0 | 0.0 | 0.0 | 0.00 | 0.01 | 0.01 | 91 | 1020.0 |
| 20260830063034 | 67 | 0 | 0.0 | 0.9 | 0.00 | 0.01 | 0.01 | 91 | 1020.0 |
| 20260830062518 | 67 | 0 | 0.0 | 0.9 | 0.00 | 0.01 | 0.01 | 91 | 1020.0 |
| 20260830062018 | 67 | 0 | 0.0 | 0.9 | 0.00 | 0.01 | 0.01 | 91 | 1019.9 |
| 20260830061537 | 67 | 0 | 0.0 | 0.0 | 0.00 | 0.01 | 0.01 | 92 | 1020.0 |
| 20260830061022 | 67 | 0 | 0.0 | 0.0 | 0.00 | 0.01 | 0.01 | 92 | 1019.9 |
| 20260830060516 | 67 | 0 | 0.0 | 0.0 | 0.00 | 0.01 | 0.01 | 92 | 1020.0 |
| 20260830060043 | 67 | 0 | 0.0 | 0.0 | 0.00 | 0.01 | 0.01 | 92 | 1020.1 |
| 20260830055519 | 67 | 0 | 0.0 | 0.9 | 0.00 | 0.01 | 0.01 | 92 | 1020.2 |
| 20260830055016 | 66 | 0 | 0.0 | 0.9 | 0.00 | 0.01 | 0.01 | 92 | 1020.3 |
| 20260830054542 | 66 | 0 | 0.0 | 0.0 | 0.00 | 0.01 | 0.01 | 91 | 1020.5 |
| 20260830054015 | 66 | 0 | 0.0 | 0.0 | 0.00 | 0.01 | 0.01 | 91 | 1020.4 |
| 20260830053516 | 66 | 0 | 0.0 | 0.0 | 0.00 | 0.01 | 0.01 | 91 | 1020.6 |
| 20260830053036 | 66 | 0 | 0.0 | 0.0 | 0.01 | 0.01 | 0.01 | 91 | 1020.4 |
| 20260830052517 | 66 | 0 | 0.0 | 0.0 | 0.01 | 0.01 | 0.01 | 90 | 1020.4 |
| 20260830052020 | 66 | 0 | 0.0 | 0.0 | 0.01 | 0.01 | 0.01 | 90 | 1020.5 |
| 20260830051535 | 66 | 0 | 0.0 | 0.0 | 0.01 | 0.01 | 0.01 | 90 | 1020.4 |
| 20260830051018 | 66 | 0 | 0.0 | 0.0 | 0.01 | 0.01 | 0.01 | 89 | 1020.5 |
| 20260830050519 | 67 | 0 | 0.0 | 0.0 | 0.01 | 0.01 | 0.01 | 89 | 1020.4 |
| 20260830050035 | 67 | 0 | 0.0 | 0.0 | 0.01 | 0.01 | 0.01 | 89 | 1020.5 |
| 20260830045520 | 67 | 0 | 0.0 | 0.0 | 0.01 | 0.01 | 0.01 | 88 | 1020.5 |
| 20260830045015 | 67 | 0 | 0.0 | 0.9 | 0.01 | 0.01 | 0.01 | 87 | 1020.4 |
| 20260830044535 | 67 | 0 | 0.0 | 0.9 | 0.01 | 0.01 | 0.01 | 86 | 1020.4 |
| 20260830044016 | 68 | 0 | 0.0 | 0.9 | 0.01 | 0.01 | 0.01 | 85 | 1020.4 |
| 20260830043517 | 68 | 0 | 0.0 | 0.9 | 0.01 | 0.01 | 0.01 | 84 | 1020.3 |
| 20260830043037 | 68 | 0 | 0.0 | 0.0 | 0.00 | 0.00 | 0.00 | 82 | 1020.4 |
| 20260830042517 | 68 | 0 | 0.0 | 0.0 | 0.00 | 0.00 | 0.00 | 82 | 1020.4 |